Location: Étouvelles
(49.5207°N, 3.5808°E)
Time: 23:53:42
(UTC+00:00)

Cosmos 540 Rocket - Pass Details

Date: 28 September 2023
Orbit: 737 x 752 km, 74.1° (Epoch: 03 December)

Event Time Altitude Azimuth Distance (km) Brightness Sun altitude
Rises 18:56:54 0° 345° (NNW) 3,184 7.1 -14.6°
Reaches altitude 10° 19:01:59 10° 29° (NNE) 2,258 5.8 -15.4°
Maximum altitude 19:02:36 10° 36° (NE) 2,245 5.7 -15.5°
Drops below altitude 10° 19:03:12 10° 43° (NE) 2,258 5.7 -15.6°
Enters shadow 19:04:03 - 52° (NE) 2,318 5.6 -15.7°
